| time (UTC) | temp F | wind direction | speed MPH | gust MPH | rain 1hr in | rain 24hr in | rain mn in | humidity % | barometer mb |
| 20260505123810 | 54 | 0 | 0.0 | 0.0 | 0.00 | 0.00 | 0.00 | 76 | 1020.1 |
| 20260505121811 | 54 | 297 | 0.0 | 1.0 | 0.00 | 0.00 | 0.00 | 74 | 1020.2 |
| 20260505115810 | 55 | 225 | 0.0 | 1.0 | 0.00 | 0.00 | 0.00 | 72 | 1020.1 |
| 20260505113810 | 56 | 0 | 0.0 | 0.0 | 0.00 | 0.00 | 0.00 | 71 | 1019.9 |
| 20260505111811 | 56 | 250 | 0.0 | 1.0 | 0.00 | 0.00 | 0.00 | 67 | 1020.0 |
| 20260505101811 | 62 | 292 | 1.0 | 3.0 | 0.00 | 0.00 | 0.00 | 54 | 1019.5 |
| 20260505095811 | 62 | 343 | 0.0 | 2.0 | 0.00 | 0.00 | 0.00 | 53 | 1019.4 |
| 20260505093811 | 64 | 274 | 0.0 | 4.0 | 0.00 | 0.00 | 0.00 | 50 | 1018.9 |
| 20260505091811 | 66 | 302 | 0.0 | 5.0 | 0.00 | 0.00 | 0.00 | 45 | 1019.0 |
| 20260505085811 | 69 | 303 | 1.0 | 4.0 | 0.00 | 0.00 | 0.00 | 43 | 1018.7 |
| 20260505083810 | 65 | 292 | 3.0 | 9.0 | 0.00 | 0.00 | 0.00 | 50 | 1018.6 |
| 20260505081811 | 67 | 280 | 1.0 | 9.0 | 0.00 | 0.00 | 0.00 | 45 | 1018.3 |
| 20260505075812 | 68 | 288 | 1.0 | 8.0 | 0.00 | 0.00 | 0.00 | 43 | 1018.5 |
| 20260505073811 | 67 | 298 | 3.0 | 11.0 | 0.00 | 0.00 | 0.00 | 43 | 1018.4 |
| 20260505071812 | 68 | 295 | 5.0 | 9.0 | 0.00 | 0.00 | 0.00 | 42 | 1018.2 |
| 20260505065809 | 69 | 288 | 6.0 | 10.0 | 0.00 | 0.00 | 0.00 | 42 | 1018.1 |
| 20260505063809 | 69 | 293 | 4.0 | 9.0 | 0.00 | 0.00 | 0.00 | 39 | 1017.9 |
| 20260505061810 | 68 | 296 | 5.0 | 10.0 | 0.00 | 0.00 | 0.00 | 42 | 1018.0 |
| 20260505055810 | 70 | 285 | 3.0 | 9.0 | 0.00 | 0.00 | 0.00 | 38 | 1017.8 |
| 20260505053809 | 70 | 294 | 3.0 | 11.0 | 0.00 | 0.00 | 0.00 | 34 | 1017.5 |
| 20260505051810 | 70 | 296 | 0.0 | 9.0 | 0.00 | 0.00 | 0.00 | 31 | 1017.5 |